Time,TemperatureF,DewpointF,PressureIn,WindDirection,WindDirectionDegrees,WindSpeedMPH,WindSpeedGustMPH,Humidity,HourlyPrecipIn,Conditions,Clouds,dailyrainin,SoftwareType,DateUTC
2013-06-07 00:01:00,70.3,67.6,0.00,North,357,2.7,5.8,91,0.16,,,0.00,VWS V14.00,2013-06-07 04:01:00,
2013-06-07 00:02:00,70.3,67.6,0.00,North,357,5.8,5.8,91,0.16,,,0.00,VWS V14.00,2013-06-07 04:02:00,
2013-06-07 00:07:00,70.3,67.6,0.00,North,3,2.7,4.9,91,0.20,,,0.04,VWS V14.00,2013-06-07 04:07:00,
2013-06-07 00:12:00,70.3,67.6,0.00,NNW,343,3.1,4.9,91,0.20,,,0.04,VWS V14.00,2013-06-07 04:12:00,
2013-06-07 00:18:00,70.3,67.6,0.00,North,353,5.8,5.8,91,0.20,,,0.04,VWS V14.00,2013-06-07 04:18:00,
2013-06-07 00:23:00,70.3,67.6,0.00,North,357,2.2,8.1,91,0.20,,,0.04,VWS V14.00,2013-06-07 04:23:00,
2013-06-07 00:28:00,70.3,67.6,0.00,North,353,4.0,5.8,91,0.12,,,0.08,VWS V14.00,2013-06-07 04:28:00,
2013-06-07 00:33:00,70.3,67.6,0.00,West,277,3.6,5.4,91,0.12,,,0.08,VWS V14.00,2013-06-07 04:33:00,
2013-06-07 00:38:00,70.5,67.8,0.00,North,6,4.0,6.3,91,0.12,,,0.08,VWS V14.00,2013-06-07 04:38:00,
2013-06-07 00:43:00,70.5,67.8,0.00,NE,55,4.0,4.0,91,0.12,,,0.08,VWS V14.00,2013-06-07 04:43:00,
2013-06-07 00:48:00,70.3,67.6,0.00,North,353,4.0,5.4,91,0.12,,,0.12,VWS V14.00,2013-06-07 04:48:00,
2013-06-07 00:53:00,70.5,67.8,0.00,NNW,344,10.1,10.1,91,0.24,,,0.20,VWS V14.00,2013-06-07 04:53:00,
2013-06-07 00:58:00,70.3,67.6,0.00,North,350,2.7,2.7,91,0.24,,,0.20,VWS V14.00,2013-06-07 04:58:00,
2013-06-07 01:03:00,70.5,67.8,0.00,NNW,328,4.9,10.1,91,0.24,,,0.20,VWS V14.00,2013-06-07 05:03:00,
2013-06-07 01:08:00,70.3,67.6,0.00,North,4,4.0,5.4,91,0.24,,,0.24,VWS V14.00,2013-06-07 05:08:00,
2013-06-07 01:13:00,70.3,67.6,0.00,North,357,5.8,9.6,91,0.24,,,0.24,VWS V14.00,2013-06-07 05:13:00,
2013-06-07 01:19:00,70.2,67.4,0.00,North,350,4.0,8.3,91,0.20,,,0.31,VWS V14.00,2013-06-07 05:19:00,
2013-06-07 01:24:00,70.2,67.4,0.00,NNW,341,2.7,7.2,91,0.39,,,0.31,VWS V14.00,2013-06-07 05:24:00,
2013-06-07 01:29:00,70.2,67.4,0.00,North,357,2.2,4.0,91,0.39,,,0.31,VWS V14.00,2013-06-07 05:29:00,
2013-06-07 01:34:00,70.2,67.4,0.00,North,4,6.3,6.3,91,0.31,,,0.35,VWS V14.00,2013-06-07 05:34:00,
2013-06-07 01:39:00,70.2,67.4,0.00,NW,313,6.3,6.3,91,0.28,,,0.39,VWS V14.00,2013-06-07 05:39:00,
2013-06-07 01:44:00,70.2,67.4,0.00,North,0,7.6,7.6,91,0.28,,,0.39,VWS V14.00,2013-06-07 05:44:00,
2013-06-07 01:49:00,70.2,67.4,0.00,North,2,3.1,7.6,91,0.28,,,0.39,VWS V14.00,2013-06-07 05:49:00,
2013-06-07 01:54:00,70.2,67.4,0.00,North,10,8.7,8.7,91,0.28,,,0.39,VWS V14.00,2013-06-07 05:54:00,
2013-06-07 01:59:00,70.2,67.4,0.00,NNW,337,5.8,5.8,91,0.28,,,0.39,VWS V14.00,2013-06-07 05:59:00,
2013-06-07 02:04:00,70.2,67.4,0.00,North,5,3.1,8.1,91,0.28,,,0.39,VWS V14.00,2013-06-07 06:04:00,
2013-06-07 02:09:00,70.3,67.6,0.00,North,5,5.8,10.1,91,0.28,,,0.39,VWS V14.00,2013-06-07 06:09:00,
2013-06-07 02:14:00,70.3,67.9,0.00,North,357,5.4,8.1,92,0.28,,,0.39,VWS V14.00,2013-06-07 06:14:00,
2013-06-07 02:20:00,70.3,67.9,0.00,North,357,4.9,5.8,92,0.28,,,0.39,VWS V14.00,2013-06-07 06:20:00,
2013-06-07 02:25:00,70.3,67.9,0.00,NNW,339,3.1,7.6,92,0.12,,,0.43,VWS V14.00,2013-06-07 06:25:00,
2013-06-07 02:30:00,70.3,67.9,0.00,North,353,5.8,11.0,92,0.12,,,0.43,VWS V14.00,2013-06-07 06:30:00,
2013-06-07 02:35:00,70.3,67.9,0.00,North,353,4.0,6.3,92,0.12,,,0.43,VWS V14.00,2013-06-07 06:35:00,
2013-06-07 02:40:00,70.2,67.7,0.00,North,357,8.3,9.6,92,0.12,,,0.43,VWS V14.00,2013-06-07 06:40:00,
2013-06-07 02:45:00,70.3,67.9,0.00,North,350,0.0,7.6,92,0.08,,,0.47,VWS V14.00,2013-06-07 06:45:00,
2013-06-07 02:50:00,70.2,67.7,0.00,ENE,57,3.6,6.3,92,0.08,,,0.47,VWS V14.00,2013-06-07 06:50:00,
2013-06-07 02:56:00,70.2,67.7,0.00,NNE,28,3.6,9.6,92,0.16,,,0.51,VWS V14.00,2013-06-07 06:56:00,
2013-06-07 03:01:00,70.2,67.7,0.00,North,1,3.1,10.1,92,0.16,,,0.51,VWS V14.00,2013-06-07 07:01:00,
2013-06-07 03:06:00,70.2,67.7,0.00,North,8,4.9,8.7,92,0.16,,,0.51,VWS V14.00,2013-06-07 07:06:00,
2013-06-07 03:11:00,70.2,67.7,0.00,North,357,4.9,8.1,92,0.16,,,0.51,VWS V14.00,2013-06-07 07:11:00,
2013-06-07 03:16:00,70.2,67.7,0.00,North,3,3.6,5.4,92,0.16,,,0.51,VWS V14.00,2013-06-07 07:16:00,
2013-06-07 03:21:00,70.2,67.7,0.00,NNW,346,5.8,6.7,92,0.16,,,0.51,VWS V14.00,2013-06-07 07:21:00,
2013-06-07 03:26:00,70.2,67.7,0.00,North,8,5.4,5.8,92,0.16,,,0.51,VWS V14.00,2013-06-07 07:26:00,
2013-06-07 03:31:00,70.2,67.7,0.00,North,6,3.6,4.9,92,0.16,,,0.51,VWS V14.00,2013-06-07 07:31:00,
2013-06-07 03:37:00,70.0,67.6,0.00,NNE,25,4.0,8.1,92,0.12,,,0.55,VWS V14.00,2013-06-07 07:37:00,
2013-06-07 03:42:00,70.0,67.6,0.00,North,4,8.7,8.7,92,0.12,,,0.55,VWS V14.00,2013-06-07 07:42:00,
2013-06-07 03:47:00,70.0,67.6,0.00,NNW,329,6.3,6.3,92,0.12,,,0.55,VWS V14.00,2013-06-07 07:47:00,
2013-06-07 03:52:00,69.8,67.4,0.00,North,0,7.2,8.1,92,0.12,,,0.55,VWS V14.00,2013-06-07 07:52:00,
2013-06-07 03:57:00,69.6,67.2,0.00,NNW,334,8.1,9.2,92,0.12,,,0.55,VWS V14.00,2013-06-07 07:57:00,
2013-06-07 04:02:00,69.6,67.5,0.00,North,357,3.6,4.9,93,0.12,,,0.55,VWS V14.00,2013-06-07 08:02:00,
2013-06-07 04:08:00,69.6,67.5,0.00,North,0,7.2,7.6,93,0.12,,,0.55,VWS V14.00,2013-06-07 08:08:00,
2013-06-07 04:13:00,69.4,67.3,0.00,North,0,4.0,8.3,93,0.12,,,0.55,VWS V14.00,2013-06-07 08:13:00,
2013-06-07 04:18:00,69.4,67.3,0.00,NNE,23,8.7,8.7,93,0.12,,,0.55,VWS V14.00,2013-06-07 08:18:00,
2013-06-07 04:23:00,69.4,67.3,0.00,North,357,5.8,6.7,93,0.12,,,0.55,VWS V14.00,2013-06-07 08:23:00,
2013-06-07 04:28:00,69.4,67.3,0.00,North,349,4.9,8.3,93,0.12,,,0.55,VWS V14.00,2013-06-07 08:28:00,
2013-06-07 04:33:00,69.4,67.3,0.00,North,1,5.4,10.1,93,0.12,,,0.55,VWS V14.00,2013-06-07 08:33:00,
2013-06-07 04:38:00,69.4,67.3,0.00,North,357,5.4,5.4,93,0.12,,,0.55,VWS V14.00,2013-06-07 08:38:00,
2013-06-07 04:43:00,69.4,67.3,0.00,North,7,4.9,8.1,93,0.12,,,0.55,VWS V14.00,2013-06-07 08:43:00,
2013-06-07 04:48:00,69.4,67.3,0.00,North,357,15.4,15.4,93,0.12,,,0.55,VWS V14.00,2013-06-07 08:48:00,
2013-06-07 04:54:00,69.3,67.2,0.00,NNW,327,2.7,5.8,93,0.12,,,0.55,VWS V14.00,2013-06-07 08:54:00,
2013-06-07 04:59:00,69.3,67.2,0.00,NNW,333,8.1,8.1,93,0.12,,,0.55,VWS V14.00,2013-06-07 08:59:00,
2013-06-07 05:04:00,69.3,67.2,0.00,NNE,18,6.3,8.7,93,0.12,,,0.55,VWS V14.00,2013-06-07 09:04:00,
2013-06-07 05:09:00,69.3,67.2,0.00,North,5,4.9,8.3,93,0.12,,,0.55,VWS V14.00,2013-06-07 09:09:00,
2013-06-07 05:14:00,69.1,67.0,0.00,North,11,4.0,9.6,93,0.12,,,0.55,VWS V14.00,2013-06-07 09:14:00,
2013-06-07 05:19:00,69.1,67.0,0.00,North,357,4.0,8.3,93,0.12,,,0.55,VWS V14.00,2013-06-07 09:19:00,
2013-06-07 05:24:00,69.1,67.0,0.00,NNW,342,7.6,7.6,93,0.12,,,0.55,VWS V14.00,2013-06-07 09:24:00,
2013-06-07 05:29:00,69.1,67.0,0.00,NNE,16,11.0,12.3,93,0.04,,,0.59,VWS V14.00,2013-06-07 09:29:00,
2013-06-07 05:34:00,69.1,67.0,0.00,NNW,333,5.4,5.8,93,0.04,,,0.59,VWS V14.00,2013-06-07 09:34:00,
2013-06-07 05:39:00,69.1,67.0,0.00,North,9,5.8,8.3,93,0.04,,,0.59,VWS V14.00,2013-06-07 09:39:00,
2013-06-07 05:45:00,69.1,67.0,0.00,North,3,2.7,10.5,93,0.04,,,0.59,VWS V14.00,2013-06-07 09:45:00,
2013-06-07 05:50:00,69.1,67.0,0.00,North,2,7.6,8.3,93,0.04,,,0.59,VWS V14.00,2013-06-07 09:50:00,
2013-06-07 05:55:00,69.1,67.0,0.00,NNW,327,6.7,9.2,93,0.04,,,0.59,VWS V14.00,2013-06-07 09:55:00,
2013-06-07 06:00:00,69.1,67.0,0.00,NNW,343,6.7,6.7,93,0.04,,,0.59,VWS V14.00,2013-06-07 10:00:00,
2013-06-07 06:05:00,69.1,67.0,0.00,NNW,341,8.3,8.7,93,0.04,,,0.59,VWS V14.00,2013-06-07 10:05:00,
2013-06-07 06:10:00,68.9,66.8,0.00,North,353,5.8,5.8,93,0.04,,,0.59,VWS V14.00,2013-06-07 10:10:00,
2013-06-07 06:15:00,68.9,66.8,0.00,North,8,4.0,11.0,93,0.04,,,0.63,VWS V14.00,2013-06-07 10:15:00,
2013-06-07 06:20:00,69.1,67.0,0.00,NW,320,8.7,8.7,93,0.08,,,0.67,VWS V14.00,2013-06-07 10:20:00,
2013-06-07 06:26:00,68.9,66.8,0.00,NNW,343,5.4,11.0,93,0.08,,,0.71,VWS V14.00,2013-06-07 10:26:00,
2013-06-07 06:31:00,68.9,66.8,0.00,NNE,29,11.0,11.0,93,0.35,,,0.71,VWS V14.00,2013-06-07 10:31:00,
2013-06-07 06:36:00,68.9,66.8,0.00,North,353,10.5,10.5,93,0.39,,,0.75,VWS V14.00,2013-06-07 10:36:00,
2013-06-07 06:41:00,68.9,66.8,0.00,North,350,6.3,6.3,93,0.35,,,0.79,VWS V14.00,2013-06-07 10:41:00,
2013-06-07 06:46:00,68.9,66.8,0.00,North,357,5.4,5.4,93,0.35,,,0.83,VWS V14.00,2013-06-07 10:46:00,
2013-06-07 06:51:00,68.9,66.8,0.00,NNW,339,6.3,8.3,93,0.35,,,0.83,VWS V14.00,2013-06-07 10:51:00,
2013-06-07 06:56:00,68.9,66.8,0.00,NNW,345,4.0,4.9,93,0.43,,,0.87,VWS V14.00,2013-06-07 10:56:00,
2013-06-07 07:01:00,69.1,67.0,0.00,NNW,341,7.6,8.1,93,0.39,,,0.91,VWS V14.00,2013-06-07 11:01:00,
2013-06-07 07:06:00,69.1,67.3,0.00,North,353,5.4,11.0,94,0.35,,,0.98,VWS V14.00,2013-06-07 11:06:00,
2013-06-07 07:11:00,69.1,67.3,0.00,North,11,5.8,8.3,94,0.35,,,0.98,VWS V14.00,2013-06-07 11:11:00,
2013-06-07 07:17:00,69.1,67.3,0.00,NNW,339,6.3,6.3,94,0.28,,,1.02,VWS V14.00,2013-06-07 11:17:00,
2013-06-07 07:22:00,69.3,67.5,0.00,NW,325,8.1,9.2,94,0.28,,,1.02,VWS V14.00,2013-06-07 11:22:00,
2013-06-07 07:27:00,69.1,67.3,0.00,NNE,23,5.8,10.5,94,0.28,,,1.02,VWS V14.00,2013-06-07 11:27:00,
2013-06-07 07:32:00,69.1,67.3,0.00,North,357,8.3,8.7,94,0.24,,,1.06,VWS V14.00,2013-06-07 11:32:00,
2013-06-07 07:37:00,69.3,67.5,0.00,North,353,11.0,11.0,94,0.24,,,1.06,VWS V14.00,2013-06-07 11:37:00,
2013-06-07 07:42:00,69.3,67.5,0.00,NNW,345,11.0,11.0,94,0.20,,,1.10,VWS V14.00,2013-06-07 11:42:00,
2013-06-07 07:47:00,69.3,67.5,0.00,North,357,8.3,11.0,94,0.20,,,1.10,VWS V14.00,2013-06-07 11:47:00,
2013-06-07 07:52:00,69.3,67.5,0.00,NE,45,5.8,7.6,94,0.20,,,1.10,VWS V14.00,2013-06-07 11:52:00,
2013-06-07 07:58:00,69.4,67.6,0.00,North,357,5.4,10.1,94,0.20,,,1.14,VWS V14.00,2013-06-07 11:58:00,
2013-06-07 08:03:00,69.4,67.6,0.00,North,353,5.4,7.6,94,0.20,,,1.14,VWS V14.00,2013-06-07 12:03:00,
2013-06-07 08:08:00,69.4,67.6,0.00,North,350,8.3,10.1,94,0.20,,,1.14,VWS V14.00,2013-06-07 12:08:00,
2013-06-07 08:13:00,69.4,67.6,0.00,North,0,5.4,10.1,94,0.16,,,1.18,VWS V14.00,2013-06-07 12:13:00,
2013-06-07 08:18:00,69.4,67.6,0.00,NNW,342,6.3,6.3,94,0.16,,,1.18,VWS V14.00,2013-06-07 12:18:00,
2013-06-07 08:24:00,69.4,67.6,0.00,NW,319,4.0,6.3,94,0.20,,,1.22,VWS V14.00,2013-06-07 12:24:00,
2013-06-07 08:29:00,69.6,67.5,0.00,NNE,19,3.6,5.8,93,0.20,,,1.22,VWS V14.00,2013-06-07 12:29:00,
2013-06-07 08:34:00,69.6,67.5,0.00,North,357,8.1,8.1,93,0.20,,,1.22,VWS V14.00,2013-06-07 12:34:00,
2013-06-07 08:39:00,69.6,67.5,0.00,North,5,2.7,7.6,93,0.20,,,1.22,VWS V14.00,2013-06-07 12:39:00,
2013-06-07 08:44:00,69.6,67.5,0.00,WNW,293,5.4,5.8,93,0.16,,,1.26,VWS V14.00,2013-06-07 12:44:00,
2013-06-07 08:49:00,69.6,67.5,0.00,NNW,328,2.7,8.7,93,0.16,,,1.26,VWS V14.00,2013-06-07 12:49:00,
2013-06-07 08:54:00,69.8,67.7,0.00,NNW,348,5.4,5.8,93,0.16,,,1.26,VWS V14.00,2013-06-07 12:54:00,
2013-06-07 08:59:00,69.8,67.7,0.00,NNW,344,4.0,4.9,93,0.16,,,1.26,VWS V14.00,2013-06-07 12:59:00,
2013-06-07 09:05:00,69.8,67.7,0.00,NNW,348,2.7,4.9,93,0.16,,,1.26,VWS V14.00,2013-06-07 13:05:00,
2013-06-07 09:10:00,70.0,67.9,0.00,North,5,3.1,6.3,93,0.16,,,1.26,VWS V14.00,2013-06-07 13:10:00,
2013-06-07 09:15:00,70.2,68.1,0.00,North,0,3.6,4.0,93,0.16,,,1.26,VWS V14.00,2013-06-07 13:15:00,
2013-06-07 09:20:00,70.2,68.1,0.00,North,357,4.0,4.0,93,0.16,,,1.26,VWS V14.00,2013-06-07 13:20:00,
2013-06-07 09:26:00,70.2,68.1,0.00,North,7,3.1,6.3,93,0.16,,,1.26,VWS V14.00,2013-06-07 13:26:00,
2013-06-07 09:31:00,70.3,68.2,0.00,North,353,2.7,3.1,93,0.08,,,1.30,VWS V14.00,2013-06-07 13:31:00,
2013-06-07 09:36:00,70.5,68.1,0.00,North,357,0.0,0.0,92,0.08,,,1.30,VWS V14.00,2013-06-07 13:36:00,
2013-06-07 09:41:00,70.5,68.1,0.00,NW,324,3.1,3.6,92,0.08,,,1.30,VWS V14.00,2013-06-07 13:41:00,
2013-06-07 09:46:00,70.5,68.1,0.00,NNW,340,2.7,3.1,92,0.08,,,1.30,VWS V14.00,2013-06-07 13:46:00,
2013-06-07 09:51:00,70.7,68.3,0.00,NNW,348,3.1,5.4,92,0.08,,,1.30,VWS V14.00,2013-06-07 13:51:00,
2013-06-07 09:57:00,70.7,68.3,0.00,North,3,3.6,4.9,92,0.08,,,1.30,VWS V14.00,2013-06-07 13:57:00,
2013-06-07 10:02:00,70.9,68.4,0.00,NW,312,2.7,6.3,92,0.08,,,1.30,VWS V14.00,2013-06-07 14:02:00,
2013-06-07 10:07:00,70.7,68.3,0.00,NW,314,2.7,5.8,92,0.08,,,1.30,VWS V14.00,2013-06-07 14:07:00,
2013-06-07 10:12:00,70.9,68.1,0.00,NW,306,4.0,4.9,91,0.08,,,1.30,VWS V14.00,2013-06-07 14:12:00,
2013-06-07 10:17:00,70.9,68.1,0.00,WNW,291,7.6,7.6,91,0.08,,,1.30,VWS V14.00,2013-06-07 14:17:00,
2013-06-07 10:22:00,70.7,67.9,0.00,North,353,0.0,2.2,91,0.04,,,1.34,VWS V14.00,2013-06-07 14:22:00,
2013-06-07 10:27:00,71.1,68.3,0.00,WSW,248,4.9,4.9,91,0.04,,,1.34,VWS V14.00,2013-06-07 14:27:00,
2013-06-07 10:33:00,71.6,68.8,0.00,NNW,332,4.0,5.8,91,0.04,,,1.34,VWS V14.00,2013-06-07 14:33:00,
2013-06-07 10:38:00,71.8,69.0,0.00,NNW,342,0.0,4.0,91,0.04,,,1.34,VWS V14.00,2013-06-07 14:38:00,
2013-06-07 10:43:00,72.1,69.4,0.00,North,5,2.7,5.4,91,0.04,,,1.34,VWS V14.00,2013-06-07 14:43:00,
2013-06-07 10:48:00,72.9,70.1,0.00,NNW,327,0.0,2.7,91,0.04,,,1.34,VWS V14.00,2013-06-07 14:48:00,
2013-06-07 10:53:00,72.7,69.9,0.00,NNW,337,3.6,3.6,91,0.04,,,1.34,VWS V14.00,2013-06-07 14:53:00,
2013-06-07 10:58:00,73.0,70.3,0.00,WSW,238,5.4,5.4,91,0.04,,,1.34,VWS V14.00,2013-06-07 14:58:00,
2013-06-07 11:04:00,73.0,70.3,0.00,NW,317,3.6,4.0,91,0.04,,,1.34,VWS V14.00,2013-06-07 15:04:00,
2013-06-07 11:09:00,72.9,69.8,0.00,WNW,295,5.8,5.8,90,0.04,,,1.34,VWS V14.00,2013-06-07 15:09:00,
2013-06-07 11:14:00,73.4,70.3,0.00,NNW,346,3.1,3.1,90,0.04,,,1.34,VWS V14.00,2013-06-07 15:14:00,
2013-06-07 11:19:00,73.2,70.1,0.00,SW,216,3.6,4.0,90,0.04,,,1.34,VWS V14.00,2013-06-07 15:19:00,
2013-06-07 11:25:00,73.2,70.1,0.00,NW,322,4.0,4.9,90,0.04,,,1.34,VWS V14.00,2013-06-07 15:25:00,
2013-06-07 11:30:00,74.8,71.7,0.00,West,268,5.4,6.3,90,0.04,,,1.34,VWS V14.00,2013-06-07 15:30:00,
2013-06-07 11:35:00,76.5,73.0,0.00,NW,325,2.7,4.0,89,0.04,,,1.34,VWS V14.00,2013-06-07 15:35:00,
2013-06-07 11:40:00,75.7,71.3,0.00,West,259,6.3,6.3,86,0.04,,,1.34,VWS V14.00,2013-06-07 15:40:00,
2013-06-07 11:45:00,75.6,69.7,0.00,WSW,250,5.8,8.3,82,0.04,,,1.34,VWS V14.00,2013-06-07 15:45:00,
2013-06-07 11:50:00,77.2,68.3,0.00,NNW,338,3.6,3.6,74,0.04,,,1.34,VWS V14.00,2013-06-07 15:50:00,
2013-06-07 11:56:00,77.5,66.2,0.00,SW,226,2.2,4.0,68,0.04,,,1.34,VWS V14.00,2013-06-07 15:56:00,
2013-06-07 12:01:00,77.2,63.6,0.00,SW,219,3.6,3.6,63,0.04,,,1.34,VWS V14.00,2013-06-07 16:01:00,
2013-06-07 12:06:00,77.4,63.8,0.00,North,9,2.2,2.7,63,0.04,,,1.34,VWS V14.00,2013-06-07 16:06:00,
2013-06-07 12:12:00,77.4,61.0,0.00,WSW,255,6.3,8.1,57,0.04,,,1.34,VWS V14.00,2013-06-07 16:12:00,
2013-06-07 12:17:00,79.0,59.9,0.00,NNW,328,0.0,4.9,52,0.04,,,1.34,VWS V14.00,2013-06-07 16:17:00,
2013-06-07 12:22:00,79.0,57.6,0.00,West,276,3.1,4.9,48,0.04,,,1.34,VWS V14.00,2013-06-07 16:22:00,
2013-06-07 12:27:00,80.1,58.0,0.00,NNW,345,0.0,5.8,47,0.00,,,1.34,VWS V14.00,2013-06-07 16:27:00,
2013-06-07 12:32:00,80.8,58.1,0.00,North,3,4.9,4.9,46,0.00,,,1.34,VWS V14.00,2013-06-07 16:32:00,
2013-06-07 12:37:00,81.1,57.2,0.00,WSW,237,0.0,3.1,44,0.00,,,1.34,VWS V14.00,2013-06-07 16:37:00,
2013-06-07 12:42:00,81.3,57.3,0.00,South,175,2.7,6.3,44,0.00,,,1.34,VWS V14.00,2013-06-07 16:42:00,
2013-06-07 12:48:00,81.0,55.7,0.00,WSW,249,4.0,6.3,42,0.00,,,1.34,VWS V14.00,2013-06-07 16:48:00,
2013-06-07 12:53:00,79.5,53.8,0.00,WSW,252,6.3,7.6,41,0.00,,,1.34,VWS V14.00,2013-06-07 16:53:00,
2013-06-07 12:58:00,79.7,54.6,0.00,WNW,301,7.6,10.1,42,0.00,,,1.34,VWS V14.00,2013-06-07 16:58:00,
2013-06-07 13:03:00,81.1,56.5,0.00,North,357,4.9,4.9,43,0.00,,,1.34,VWS V14.00,2013-06-07 17:03:00,
2013-06-07 13:08:00,82.2,58.2,0.00,WSW,241,6.3,6.3,44,0.00,,,1.34,VWS V14.00,2013-06-07 17:08:00,
2013-06-07 13:13:00,81.3,55.4,0.00,WSW,241,8.1,10.1,41,0.00,,,1.34,VWS V14.00,2013-06-07 17:13:00,
2013-06-07 13:18:00,81.7,56.4,0.00,South,175,0.0,0.0,42,0.00,,,1.34,VWS V14.00,2013-06-07 17:18:00,
2013-06-07 13:23:00,83.5,58.0,0.00,North,357,4.9,4.9,42,0.00,,,1.34,VWS V14.00,2013-06-07 17:23:00,
2013-06-07 13:28:00,84.4,55.3,0.00,SW,236,2.2,2.2,37,0.00,,,1.34,VWS V14.00,2013-06-07 17:28:00,
2013-06-07 13:34:00,83.8,54.1,0.00,West,263,0.0,5.8,36,0.00,,,1.34,VWS V14.00,2013-06-07 17:34:00,
2013-06-07 13:39:00,83.7,56.1,0.00,South,176,0.0,8.3,39,0.00,,,1.34,VWS V14.00,2013-06-07 17:39:00,
2013-06-07 13:44:00,83.3,55.1,0.00,South,189,0.0,7.2,38,0.00,,,1.34,VWS V14.00,2013-06-07 17:44:00,
2013-06-07 13:49:00,84.2,54.4,0.00,WSW,239,10.5,10.5,36,0.00,,,1.34,VWS V14.00,2013-06-07 17:49:00,
2013-06-07 13:55:00,84.7,55.6,0.00,WSW,245,7.6,7.6,37,0.00,,,1.34,VWS V14.00,2013-06-07 17:55:00,
2013-06-07 14:00:00,84.9,54.2,0.00,NNW,332,0.0,8.7,35,0.00,,,1.34,VWS V14.00,2013-06-07 18:00:00,
2013-06-07 14:06:00,85.3,53.8,0.00,SSW,197,0.0,11.0,34,0.00,,,1.34,VWS V14.00,2013-06-07 18:06:00,
2013-06-07 14:11:00,84.4,53.0,0.00,SW,230,0.0,5.4,34,0.00,,,1.34,VWS V14.00,2013-06-07 18:11:00,
2013-06-07 14:16:00,84.2,52.8,0.00,NNW,338,3.6,5.8,34,0.00,,,1.34,VWS V14.00,2013-06-07 18:16:00,
2013-06-07 14:21:00,83.3,52.8,0.00,WNW,294,5.4,8.3,35,0.00,,,1.34,VWS V14.00,2013-06-07 18:21:00,
2013-06-07 14:26:00,84.4,57.5,0.00,North,0,0.0,0.0,40,0.00,,,1.34,VWS V14.00,2013-06-07 18:26:00,
2013-06-07 14:31:00,84.7,54.1,0.00,SW,234,3.6,5.4,35,0.00,,,1.34,VWS V14.00,2013-06-07 18:31:00,
2013-06-07 14:36:00,85.8,54.2,0.00,NW,311,6.3,6.3,34,0.00,,,1.34,VWS V14.00,2013-06-07 18:36:00,
2013-06-07 14:41:00,85.8,52.6,0.00,SW,231,5.4,5.8,32,0.00,,,1.34,VWS V14.00,2013-06-07 18:41:00,
2013-06-07 14:47:00,86.9,52.7,0.00,West,279,2.7,3.6,31,0.00,,,1.34,VWS V14.00,2013-06-07 18:47:00,
2013-06-07 14:52:00,86.9,51.8,0.00,West,263,8.7,8.7,30,0.00,,,1.34,VWS V14.00,2013-06-07 18:52:00,
2013-06-07 14:57:00,85.6,50.7,0.00,WNW,289,5.8,6.7,30,0.00,,,1.34,VWS V14.00,2013-06-07 18:57:00,
2013-06-07 15:02:00,87.1,53.7,0.00,WSW,249,0.0,2.2,32,0.00,,,1.34,VWS V14.00,2013-06-07 19:02:00,
2013-06-07 15:07:00,88.0,50.8,0.00,NE,48,2.2,6.7,28,0.00,,,1.34,VWS V14.00,2013-06-07 19:07:00,
2013-06-07 15:12:00,88.2,51.9,0.00,WSW,256,3.6,6.7,29,0.00,,,1.34,VWS V14.00,2013-06-07 19:12:00,
2013-06-07 15:18:00,89.4,52.1,0.00,NNW,334,0.0,5.4,28,0.00,,,1.34,VWS V14.00,2013-06-07 19:18:00,
2013-06-07 15:23:00,90.3,51.8,0.00,NW,313,0.0,3.1,27,0.00,,,1.34,VWS V14.00,2013-06-07 19:23:00,
2013-06-07 15:28:00,89.4,50.0,0.00,SW,224,8.1,8.1,26,0.00,,,1.34,VWS V14.00,2013-06-07 19:28:00,
2013-06-07 15:33:00,88.3,51.1,0.00,SW,228,3.6,5.4,28,0.00,,,1.34,VWS V14.00,2013-06-07 19:33:00,
2013-06-07 15:38:00,88.9,51.6,0.00,WSW,251,0.0,3.6,28,0.00,,,1.34,VWS V14.00,2013-06-07 19:38:00,
2013-06-07 15:43:00,88.2,51.0,0.00,NW,321,4.0,5.8,28,0.00,,,1.34,VWS V14.00,2013-06-07 19:43:00,
2013-06-07 15:48:00,90.0,52.5,0.00,West,264,3.6,3.6,28,0.00,,,1.34,VWS V14.00,2013-06-07 19:48:00,
2013-06-07 15:54:00,89.8,49.3,0.00,SW,219,3.6,11.0,25,0.00,,,1.34,VWS V14.00,2013-06-07 19:54:00,
2013-06-07 15:59:00,88.0,49.8,0.00,WSW,238,6.3,8.1,27,0.00,,,1.34,VWS V14.00,2013-06-07 19:59:00,
2013-06-07 16:04:00,88.7,49.5,0.00,SSW,205,3.1,3.1,26,0.00,,,1.34,VWS V14.00,2013-06-07 20:04:00,
2013-06-07 16:09:00,89.6,50.2,0.00,WSW,246,3.6,3.6,26,0.00,,,1.34,VWS V14.00,2013-06-07 20:09:00,
2013-06-07 16:15:00,90.0,49.5,0.00,WSW,239,8.7,8.7,25,0.00,,,1.34,VWS V14.00,2013-06-07 20:15:00,
2013-06-07 16:20:00,89.1,46.5,0.00,South,175,6.3,12.8,23,0.00,,,1.34,VWS V14.00,2013-06-07 20:20:00,
2013-06-07 16:25:00,88.7,49.5,0.00,SSW,193,5.8,5.8,26,0.00,,,1.34,VWS V14.00,2013-06-07 20:25:00,
2013-06-07 16:30:00,88.5,48.2,0.00,SW,225,7.6,7.6,25,0.00,,,1.34,VWS V14.00,2013-06-07 20:30:00,
2013-06-07 16:35:00,87.8,48.7,0.00,SW,215,4.0,8.3,26,0.00,,,1.34,VWS V14.00,2013-06-07 20:35:00,
2013-06-07 16:40:00,89.2,48.8,0.00,WSW,248,8.3,8.7,25,0.00,,,1.34,VWS V14.00,2013-06-07 20:40:00,
2013-06-07 16:46:00,89.4,46.8,0.00,WSW,242,4.0,7.6,23,0.00,,,1.34,VWS V14.00,2013-06-07 20:46:00,
2013-06-07 16:52:00,90.3,48.7,0.00,West,263,4.0,5.8,24,0.00,,,1.34,VWS V14.00,2013-06-07 20:52:00,
2013-06-07 16:57:00,90.3,48.7,0.00,NNW,335,2.2,3.6,24,0.00,,,1.34,VWS V14.00,2013-06-07 20:57:00,
2013-06-07 17:02:00,90.7,50.1,0.00,SE,127,5.4,8.7,25,0.00,,,1.34,VWS V14.00,2013-06-07 21:02:00,
2013-06-07 17:07:00,90.3,47.5,0.00,WSW,240,5.8,11.0,23,0.00,,,1.34,VWS V14.00,2013-06-07 21:07:00,
2013-06-07 17:12:00,89.2,48.8,0.00,WNW,283,8.1,8.1,25,0.00,,,1.34,VWS V14.00,2013-06-07 21:12:00,
2013-06-07 17:17:00,89.1,49.8,0.00,SW,232,4.0,11.0,26,0.00,,,1.34,VWS V14.00,2013-06-07 21:17:00,
2013-06-07 17:23:00,90.9,51.3,0.00,SE,136,0.0,3.6,26,0.00,,,1.34,VWS V14.00,2013-06-07 21:23:00,
2013-06-07 17:29:00,91.2,49.4,0.00,SW,229,4.0,4.0,24,0.00,,,1.34,VWS V14.00,2013-06-07 21:29:00,
2013-06-07 17:34:00,90.1,48.5,0.00,SW,216,0.0,3.1,24,0.00,,,1.34,VWS V14.00,2013-06-07 21:34:00,
2013-06-07 17:39:00,89.4,52.1,0.00,WSW,239,2.7,5.8,28,0.00,,,1.34,VWS V14.00,2013-06-07 21:39:00,
2013-06-07 17:44:00,90.7,52.1,0.00,SSW,208,4.9,4.9,27,0.00,,,1.34,VWS V14.00,2013-06-07 21:44:00,
2013-06-07 17:49:00,90.1,48.5,0.00,SW,234,4.0,6.3,24,0.00,,,1.34,VWS V14.00,2013-06-07 21:49:00,
2013-06-07 17:54:00,87.4,50.4,0.00,WSW,240,6.3,7.6,28,0.00,,,1.34,VWS V14.00,2013-06-07 21:54:00,
2013-06-07 18:00:00,86.5,50.5,0.00,South,190,0.0,5.8,29,0.00,,,1.34,VWS V14.00,2013-06-07 22:00:00,
2013-06-07 18:06:00,86.2,52.0,0.00,SW,233,0.0,2.2,31,0.00,,,1.34,VWS V14.00,2013-06-07 22:06:00,
2013-06-07 18:11:00,86.2,52.0,0.00,SSW,198,0.0,0.0,31,0.00,,,1.34,VWS V14.00,2013-06-07 22:11:00,
2013-06-07 18:17:00,86.0,51.9,0.00,SW,230,0.0,4.0,31,0.00,,,1.34,VWS V14.00,2013-06-07 22:17:00,
2013-06-07 18:22:00,84.6,51.5,0.00,WSW,238,5.4,8.1,32,0.00,,,1.34,VWS V14.00,2013-06-07 22:22:00,
2013-06-07 18:27:00,84.7,52.5,0.00,WSW,248,3.1,3.1,33,0.00,,,1.34,VWS V14.00,2013-06-07 22:27:00,
2013-06-07 18:32:00,86.9,51.8,0.00,SSE,165,2.7,3.6,30,0.00,,,1.34,VWS V14.00,2013-06-07 22:32:00,
2013-06-07 18:37:00,88.0,50.8,0.00,WSW,240,6.3,8.3,28,0.00,,,1.34,VWS V14.00,2013-06-07 22:37:00,
2013-06-07 18:42:00,88.7,51.4,0.00,West,266,5.8,6.3,28,0.00,,,1.34,VWS V14.00,2013-06-07 22:42:00,
2013-06-07 18:48:00,88.3,51.1,0.00,SE,136,3.6,6.3,28,0.00,,,1.34,VWS V14.00,2013-06-07 22:48:00,
2013-06-07 18:53:00,90.1,51.7,0.00,SSW,193,2.2,2.7,27,0.00,,,1.34,VWS V14.00,2013-06-07 22:53:00,
2013-06-07 18:58:00,89.2,47.8,0.00,SSW,203,5.4,5.4,24,0.00,,,1.34,VWS V14.00,2013-06-07 22:58:00,
2013-06-07 19:03:00,87.6,48.5,0.00,SW,225,4.5,6.3,26,0.00,,,1.34,VWS V14.00,2013-06-07 23:03:00,
2013-06-07 19:08:00,89.1,50.8,0.00,SSE,158,4.9,4.9,27,0.00,,,1.34,VWS V14.00,2013-06-07 23:08:00,
2013-06-07 19:14:00,89.6,48.1,0.00,SW,215,2.7,3.6,24,0.00,,,1.34,VWS V14.00,2013-06-07 23:14:00,
2013-06-07 19:20:00,88.7,46.2,0.00,SW,225,3.6,5.4,23,0.00,,,1.34,VWS V14.00,2013-06-07 23:20:00,
2013-06-07 19:25:00,88.2,45.7,0.00,WSW,244,0.0,4.0,23,0.00,,,1.34,VWS V14.00,2013-06-07 23:25:00,
2013-06-07 19:30:00,88.7,46.2,0.00,SSE,164,3.1,5.4,23,0.00,,,1.34,VWS V14.00,2013-06-07 23:30:00,
2013-06-07 19:35:00,86.2,48.3,0.00,SSW,202,0.0,0.0,27,0.00,,,1.34,VWS V14.00,2013-06-07 23:35:00,
2013-06-07 19:40:00,84.7,49.0,0.00,SW,226,3.1,3.1,29,0.00,,,1.34,VWS V14.00,2013-06-07 23:40:00,
2013-06-07 19:45:00,83.3,48.7,0.00,East,82,2.7,3.6,30,0.00,,,1.34,VWS V14.00,2013-06-07 23:45:00,
2013-06-07 19:50:00,82.6,48.9,0.00,SSW,208,0.0,2.7,31,0.00,,,1.34,VWS V14.00,2013-06-07 23:50:00,
2013-06-07 19:55:00,81.9,50.8,0.00,SW,218,2.2,5.8,34,0.00,,,1.34,VWS V14.00,2013-06-07 23:55:00,
2013-06-07 20:00:00,81.3,52.6,0.00,SW,225,2.2,3.6,37,0.00,,,1.34,VWS V14.00,2013-06-08 00:00:00,
2013-06-07 20:06:00,81.0,50.8,0.00,South,184,0.0,3.6,35,0.00,,,1.34,VWS V14.00,2013-06-08 00:06:00,
2013-06-07 20:12:00,80.4,49.5,0.00,SW,226,0.0,6.3,34,0.00,,,1.34,VWS V14.00,2013-06-08 00:12:00,
2013-06-07 20:17:00,80.1,50.0,0.00,SW,217,0.0,4.9,35,0.00,,,1.34,VWS V14.00,2013-06-08 00:17:00,
2013-06-07 20:22:00,79.5,49.5,0.00,SW,224,0.0,0.0,35,0.00,,,1.34,VWS V14.00,2013-06-08 00:22:00,
2013-06-07 20:27:00,79.5,50.2,0.00,SW,220,0.0,0.0,36,0.00,,,1.34,VWS V14.00,2013-06-08 00:27:00,
2013-06-07 20:32:00,79.3,50.8,0.00,WSW,240,0.0,0.0,37,0.00,,,1.34,VWS V14.00,2013-06-08 00:32:00,
2013-06-07 20:38:00,79.2,50.7,0.00,SW,220,0.0,2.2,37,0.00,,,1.34,VWS V14.00,2013-06-08 00:38:00,
2013-06-07 20:43:00,79.2,51.4,0.00,SW,220,0.0,0.0,38,0.00,,,1.34,VWS V14.00,2013-06-08 00:43:00,
2013-06-07 20:48:00,78.8,51.8,0.00,SW,224,0.0,0.0,39,0.00,,,1.34,VWS V14.00,2013-06-08 00:48:00,
2013-06-07 20:54:00,78.6,52.3,0.00,WSW,239,2.2,4.0,40,0.00,,,1.34,VWS V14.00,2013-06-08 00:54:00,
2013-06-07 20:59:00,78.4,53.5,0.00,NW,311,0.0,2.2,42,0.00,,,1.34,VWS V14.00,2013-06-08 00:59:00,
2013-06-07 21:04:00,78.3,53.3,0.00,SW,232,0.0,0.0,42,0.00,,,1.34,VWS V14.00,2013-06-08 01:04:00,
2013-06-07 21:09:00,77.9,53.6,0.00,SW,228,2.2,3.6,43,0.00,,,1.34,VWS V14.00,2013-06-08 01:09:00,
2013-06-07 21:14:00,77.4,55.0,0.00,SW,224,0.0,2.7,46,0.00,,,1.34,VWS V14.00,2013-06-08 01:14:00,
2013-06-07 21:19:00,76.6,56.1,0.00,SSW,201,5.4,5.4,49,0.00,,,1.34,VWS V14.00,2013-06-08 01:19:00,
2013-06-07 21:25:00,76.5,57.5,0.00,SSW,206,0.0,0.0,52,0.00,,,1.34,VWS V14.00,2013-06-08 01:25:00,
2013-06-07 21:30:00,75.9,58.6,0.00,SSW,203,5.4,5.8,55,0.00,,,1.34,VWS V14.00,2013-06-08 01:30:00,
2013-06-07 21:36:00,75.2,59.9,0.00,WSW,237,0.0,3.1,59,0.00,,,1.34,VWS V14.00,2013-06-08 01:36:00,
2013-06-07 21:41:00,74.7,60.8,0.00,South,189,0.0,4.0,62,0.00,,,1.34,VWS V14.00,2013-06-08 01:41:00,
2013-06-07 21:46:00,74.5,62.0,0.00,SW,218,0.0,0.0,65,0.00,,,1.34,VWS V14.00,2013-06-08 01:46:00,
2013-06-07 21:51:00,74.1,62.5,0.00,SSW,207,2.7,8.1,67,0.00,,,1.34,VWS V14.00,2013-06-08 01:51:00,
2013-06-07 21:56:00,73.8,63.0,0.00,SSE,157,4.0,4.0,69,0.00,,,1.38,VWS V14.00,2013-06-08 01:56:00,
2013-06-07 22:01:00,72.9,62.5,0.00,WSW,258,4.0,5.8,70,0.63,,,1.46,VWS V14.00,2013-06-08 02:01:00,
2013-06-07 22:07:00,72.0,62.0,0.00,SSW,203,0.0,2.7,71,3.07,,,1.57,VWS V14.00,2013-06-08 02:07:00,
2013-06-07 22:12:00,71.8,63.4,0.00,SW,233,2.7,6.3,75,3.07,,,1.57,VWS V14.00,2013-06-08 02:12:00,
2013-06-07 22:17:00,72.0,64.0,0.00,WSW,248,0.0,0.0,76,3.07,,,1.57,VWS V14.00,2013-06-08 02:17:00,
2013-06-07 22:23:00,71.8,63.8,0.00,WSW,249,0.0,2.2,76,3.07,,,1.57,VWS V14.00,2013-06-08 02:23:00,
2013-06-07 22:28:00,71.6,63.6,0.00,SSW,208,2.7,4.9,76,0.24,,,1.65,VWS V14.00,2013-06-08 02:28:00,
2013-06-07 22:33:00,71.2,63.3,0.00,SSW,211,0.0,3.6,76,0.91,,,1.73,VWS V14.00,2013-06-08 02:33:00,
2013-06-07 22:38:00,71.1,63.1,0.00,SE,133,0.0,2.2,76,0.91,,,1.73,VWS V14.00,2013-06-08 02:38:00,
2013-06-07 22:43:00,71.1,63.5,0.00,SSW,208,0.0,2.7,77,0.91,,,1.73,VWS V14.00,2013-06-08 02:43:00,
2013-06-07 22:49:00,71.1,63.5,0.00,SSW,208,0.0,0.0,77,0.91,,,1.73,VWS V14.00,2013-06-08 02:49:00,
2013-06-07 22:54:00,70.9,63.3,0.00,SSW,208,0.0,0.0,77,0.91,,,1.73,VWS V14.00,2013-06-08 02:54:00,
2013-06-07 22:59:00,70.9,63.3,0.00,SSW,208,0.0,0.0,77,0.91,,,1.73,VWS V14.00,2013-06-08 02:59:00,
2013-06-07 23:04:00,70.9,63.3,0.00,SSW,208,0.0,0.0,77,0.91,,,1.73,VWS V14.00,2013-06-08 03:04:00,
2013-06-07 23:10:00,70.7,63.5,0.00,SSW,208,0.0,0.0,78,0.91,,,1.73,VWS V14.00,2013-06-08 03:10:00,
2013-06-07 23:15:00,70.7,63.5,0.00,SSW,208,0.0,0.0,78,0.91,,,1.73,VWS V14.00,2013-06-08 03:15:00,
2013-06-07 23:20:00,70.9,64.1,0.00,SSW,208,0.0,0.0,79,0.91,,,1.73,VWS V14.00,2013-06-08 03:20:00,
2013-06-07 23:25:00,70.9,64.1,0.00,SSW,208,0.0,0.0,79,0.91,,,1.73,VWS V14.00,2013-06-08 03:25:00,
2013-06-07 23:30:00,70.9,64.4,0.00,SSW,208,0.0,0.0,80,0.91,,,1.73,VWS V14.00,2013-06-08 03:30:00,
2013-06-07 23:35:00,70.9,64.4,0.00,SSW,208,0.0,0.0,80,0.91,,,1.73,VWS V14.00,2013-06-08 03:35:00,
2013-06-07 23:41:00,71.1,64.6,0.00,South,182,0.0,0.0,80,0.91,,,1.73,VWS V14.00,2013-06-08 03:41:00,
2013-06-07 23:46:00,71.1,64.6,0.00,South,182,0.0,0.0,80,0.91,,,1.73,VWS V14.00,2013-06-08 03:46:00,
2013-06-07 23:52:00,71.1,64.9,0.00,South,182,0.0,0.0,81,0.91,,,1.73,VWS V14.00,2013-06-08 03:52:00,
2013-06-07 23:58:00,71.1,64.9,0.00,South,182,0.0,0.0,81,0.91,,,1.73,VWS V14.00,2013-06-08 03:58:00,